Flag for El Salvador Weather past 2 weeks in San Salvador, El Salvador

Now
72 °F

Light rain. Partly cloudy.


Feels Like: 67 °F
Forecast: 68 / 74 °F
Wind: No wind

Location: San Salvador / Ilopango

Current Time: Aug 28, 2014 at 11:48:43 PM

Latest Report: Aug 28, 2014 at 10:50 PM


Visibility: 5 mi

Pressure: 30.01 "Hg

Humidity: 94%

Dew point: 70 °F

Location of San SalvadorLocation

Historic Weather in San Salvador — Graph

°F

San Salvador temperature yesterday

Maximum temperature yesterday: 88 °F (at 12:50 PM)
Minimum temperature yesterday: 72 °F (at 5:50 AM)
Average temperature yesterday: 78 °F

Past Weeks' High & Low Weather Summary

 TemperatureHumidityPressure
High91 °F (Aug 18, 2:50 PM)100% (Aug 14, 10:50 PM)30.09 "Hg (Aug 14, 10:50 PM)
Low64 °F (Aug 15, 5:57 AM)52% (Aug 15, 1:50 PM)29.86 "Hg (Aug 19, 5:50 PM)
Average78 °F81%29.97 "Hg
* Reported Aug 13 10:50 PM — Aug 28 10:50 PM, San Salvador, Weather by CustomWeather, © 2014

Note: Actual official high and low records may vary slightly from our data, if they occured in-between our weather recording intervals... More about our weather records

Advertising

San Salvador weather history for previous 24 hours

 ConditionsComfort  
Time TempWeatherWind HumidityBarometerVisibility
10:50 PM
Aug 28
72 °FLight rain. Partly cloudy.No wind94%30.01 "Hg5 mi
9:50 PM72 °FLight rain. Passing clouds.2 mph94%30.01 "Hg4 mi
8:50 PM72 °FRain. Passing clouds.3 mph94%29.98 "Hg4 mi
7:50 PM73 °FThunderstorms. Passing clouds.No wind94%29.95 "HgN/A
6:50 PM73 °FPassing clouds.7 mph89%29.92 "HgN/A
5:50 PM75 °FScattered clouds.7 mph83%29.92 "HgN/A
4:50 PM77 °FScattered clouds.14 mph83%29.89 "HgN/A
3:50 PM79 °FLight rain. Scattered clouds.12 mph79%29.92 "HgN/A
2:50 PM82 °FBroken clouds.9 mph74%29.92 "HgN/A
1:50 PM84 °FScattered clouds.6 mph74%29.92 "HgN/A
12:50 PM84 °FScattered clouds.9 mph79%29.95 "HgN/A
11:50 AM82 °FScattered clouds.7 mph74%29.98 "HgN/A
10:50 AM79 °FScattered clouds.5 mph84%29.98 "HgN/A
9:50 AM77 °FPartly sunny.7 mph89%29.98 "HgN/A
8:50 AM73 °FPartly sunny.No wind94%29.98 "HgN/A
7:50 AM72 °FPassing clouds.2 mph94%29.98 "HgN/A
6:50 AM70 °FSunny.2 mph94%29.98 "Hg10 mi
5:50 AM66 °FSunny.3 mph100%29.98 "Hg10 mi
11:50 PM
Aug 27
73 °FThunderstorms. Partly cloudy.12 mph94%30.01 "Hg3 mi
Weather by CustomWeather, © 2014

See weather overviewHow to use our weather pages